GW1987 Weather Reports


Display with metric or nautical units.
time (UTC)temp
F
wind
direction
speed
MPH
gust
MPH
rain 1hr
in
rain 24hr
in
rain mn
in
humidity
%
barometer
mb
20260506093511 27 360 1.0 3.0 0.00 0.00 0.00 53 928.2
20260506093100 27 360 1.0 3.0 0.00 0.00 0.00 52 928.3
20260506092512 27 360 1.0 4.0 0.00 0.00 0.00 52 928.2
20260506092013 26 360 2.0 4.0 0.00 0.00 0.00 52 928.3
20260506091536 26 360 2.0 4.0 0.00 0.00 0.00 51 928.2
20260506091011 26 360 2.0 4.0 0.00 0.00 0.00 51 928.2
20260506090510 26 360 2.0 6.0 0.00 0.00 0.00 50 928.3
20260506090039 26 360 4.0 6.0 0.00 0.00 0.00 50 928.4
20260506085509 26 360 2.0 4.0 0.00 0.00 0.00 50 928.4
20260506085011 27 360 2.0 4.0 0.00 0.00 0.00 49 928.5
20260506084532 27 360 3.0 6.0 0.00 0.00 0.00 49 928.6
20260506084013 27 360 4.0 6.0 0.00 0.00 0.00 49 928.4
20260506083512 27 360 5.0 8.0 0.00 0.00 0.00 49 928.5
20260506083037 27 360 5.0 8.0 0.00 0.00 0.00 49 928.5
20260506082515 27 360 5.0 6.0 0.00 0.00 0.00 49 928.6
20260506082013 26 360 4.0 8.0 0.00 0.00 0.00 49 928.6
20260506081531 27 360 4.0 8.0 0.00 0.00 0.00 48 928.7
20260506081013 27 360 6.0 10.0 0.00 0.00 0.00 46 928.7
20260506080510 29 360 8.0 10.0 0.00 0.00 0.00 45 928.8
20260506073514 29 360 10.0 12.0 0.00 0.00 0.00 45 929.0
20260506073033 29 360 11.0 12.0 0.00 0.00 0.00 46 929.1
20260506072512 27 360 8.0 10.0 0.00 0.00 0.00 48 929.2
20260506072015 27 360 5.0 6.0 0.00 0.00 0.00 48 929.3
20260506071535 26 360 5.0 6.0 0.00 0.00 0.00 48 929.3
20260506071011 26 360 5.0 6.0 0.00 0.00 0.00 46 929.3
20260506070509 27 360 5.0 9.0 0.00 0.00 0.00 44 929.4
20260506062511 30 360 7.0 9.0 0.00 0.00 0.00 43 929.4
20260506062014 30 360 8.0 9.0 0.00 0.00 0.00 42 929.4
20260506061542 30 360 8.0 9.0 0.00 0.00 0.00 43 929.4
20260506061010 29 360 8.0 9.0 0.00 0.00 0.00 44 929.5
20260506060511 29 360 5.0 9.0 0.00 0.00 0.00 43 929.4
20260506051011 28 360 4.0 6.0 0.00 0.00 0.00 43 929.5
20260506050512 28 360 4.0 5.0 0.00 0.00 0.00 41 929.6
20260506045014 31 360 3.0 5.0 0.00 0.00 0.00 36 929.8
20260506044536 33 360 2.0 4.0 0.00 0.00 0.00 35 929.6
20260506044011 33 360 1.0 3.0 0.00 0.00 0.00 35 929.8
20260506043515 33 360 1.0 2.0 0.00 0.00 0.00 35 930.0
20260506043035 33 360 1.0 3.0 0.00 0.00 0.00 35 929.5
20260506042511 33 360 2.0 3.0 0.00 0.00 0.00 34 929.7
20260506042012 34 360 2.0 3.0 0.00 0.00 0.00 34 929.8
20260506041531 34 360 1.0 3.0 0.00 0.00 0.00 34 929.7
20260506041010 34 360 2.0 3.0 0.00 0.00 0.00 34 929.6
20260506040512 34 360 2.0 3.0 0.00 0.00 0.00 33 929.6
20260506040031 34 360 2.0 3.0 0.00 0.00 0.00 33 929.6
20260506035512 35 360 1.0 3.0 0.00 0.00 0.00 32 929.9
20260506035013 36 360 1.0 3.0 0.00 0.00 0.00 30 929.8
20260506034532 37 360 0.0 3.0 0.00 0.00 0.00 30 929.7
20260506034011 37 360 0.0 0.0 0.00 0.00 0.00 29 929.5
20260506033512 38 360 0.0 5.0 0.00 0.00 0.00 28 929.6
20260506033035 39 360 2.0 5.0 0.00 0.00 0.00 27 929.5
20260506032513 39 360 2.0 4.0 0.00 0.00 0.00 28 929.4
20260506032012 40 360 1.0 4.0 0.00 0.00 0.00 27 929.4
20260506031533 40 360 2.0 4.0 0.00 0.00 0.00 27 929.4
20260506031012 40 360 3.0 5.0 0.00 0.00 0.00 27 929.4
20260506030512 41 360 4.0 5.0 0.00 0.00 0.00 27 929.5
20260506030035 41 360 3.0 5.0 0.00 0.00 0.00 26 929.3
20260506025513 41 360 4.0 5.0 0.00 0.00 0.00 26 929.0
20260506025010 42 360 4.0 5.0 0.00 0.00 0.00 25 929.1
20260506024532 43 360 4.0 5.0 0.00 0.00 0.00 25 929.0
20260506024011 44 360 4.0 6.0 0.00 0.00 0.00 24 929.0
20260506023511 44 360 4.0 6.0 0.00 0.00 0.00 24 929.2
20260506023048 45 360 3.0 6.0 0.00 0.00 0.00 23 929.1
20260506022510 45 360 4.0 9.0 0.00 0.00 0.00 23 929.2
20260506022011 45 360 6.0 11.0 0.00 0.00 0.00 23 929.1
20260506021533 46 360 8.0 11.0 0.00 0.00 0.00 22 929.0
20260506021010 46 360 4.0 11.0 0.00 0.00 0.00 22 929.1
20260506020512 46 360 5.0 13.0 0.00 0.00 0.00 22 929.1
20260506020056 46 360 9.0 15.0 0.00 0.00 0.00 22 929.2
20260506015513 47 360 12.0 16.0 0.00 0.00 0.00 22 929.1
20260506015013 47 360 12.0 16.0 0.00 0.00 0.00 21 929.1
20260506014531 47 360 12.0 15.0 0.00 0.00 0.00 21 929.2
20260506014014 47 360 12.0 18.0 0.00 0.00 0.00 21 929.3
20260506013518 48 360 14.0 19.0 0.00 0.00 0.00 20 929.1
20260506013032 48 360 12.0 19.0 0.00 0.00 0.00 20 929.1
20260506012512 48 360 13.0 17.0 0.00 0.00 0.00 20 929.1
20260506012014 48 360 13.0 17.0 0.00 0.00 0.00 20 929.1
20260506011534 48 360 13.0 18.0 0.00 0.00 0.00 20 929.0
20260506011013 48 360 14.0 20.0 0.00 0.00 0.00 20 928.8
20260506010511 48 360 15.0 20.0 0.00 0.00 0.00 19 928.8
20260506010031 49 360 11.0 16.0 0.00 0.00 0.00 18 929.1
20260506005517 49 360 11.0 22.0 0.00 0.00 0.00 18 929.0
20260506005012 49 360 15.0 22.0 0.00 0.00 0.00 18 929.2
20260506004540 49 360 11.0 18.0 0.00 0.00 0.00 18 928.9
20260506004014 49 360 13.0 25.0 0.00 0.00 0.00 17 929.0
20260506003513 50 360 20.0 25.0 0.00 0.00 0.00 17 928.5
20260506003032 49 360 10.0 26.0 0.00 0.00 0.00 17 928.9
20260506002512 49 360 17.0 29.0 0.00 0.00 0.00 18 928.8
20260506002011 50 360 23.0 29.0 0.00 0.00 0.00 17 928.3
20260506001544 49 360 15.0 22.0 0.00 0.00 0.00 18 929.0
20260506001015 49 360 15.0 25.0 0.00 0.00 0.00 17 928.8
20260506000513 49 360 19.0 26.0 0.00 0.00 0.00 18 928.9
20260506000048 48 360 13.0 27.0 0.00 0.00 0.00 16 928.9
20260505235516 49 360 22.0 27.0 0.00 0.00 0.00 16 928.8
20260505235013 48 360 16.0 27.0 0.00 0.00 0.00 18 929.0
20260505234534 48 360 18.0 29.0 0.00 0.00 0.00 17 928.9
20260505234013 49 360 20.0 35.0 0.00 0.00 0.00 18 929.0
20260505233512 50 360 21.0 31.0 0.00 0.00 0.00 18 928.9
20260505233029 50 360 19.0 28.0 0.00 0.00 0.00 17 929.0
20260505232512 50 360 19.0 28.0 0.00 0.00 0.00 19 929.0
20260505232013 49 360 18.0 25.0 0.00 0.00 0.00 18 928.8
20260505231530 48 360 20.0 32.0 0.00 0.00 0.00 19 928.7
20260505231010 49 360 27.0 32.0 0.00 0.00 0.00 18 928.6
20260505230510 49 360 15.0 25.0 0.00 0.00 0.00 17 929.1
20260505230042 49 360 18.0 28.0 0.00 0.00 0.00 19 929.0
20260505225512 49 360 19.0 28.0 0.00 0.00 0.00 20 928.9
20260505225016 49 360 19.0 27.0 0.00 0.00 0.00 19 928.9
20260505224536 49 360 21.0 29.0 0.00 0.00 0.00 19 928.8
20260505224012 49 360 22.0 29.0 0.00 0.00 0.00 20 928.9
20260505223513 48 360 16.0 22.0 0.00 0.00 0.00 21 929.1
20260505223036 48 360 15.0 26.0 0.00 0.00 0.00 22 929.2
20260505222515 48 360 17.0 26.0 0.00 0.00 0.00 28 928.9
20260505222015 47 360 12.0 24.0 0.00 0.00 0.00 37 929.3
20260505221534 48 360 15.0 22.0 0.00 0.00 0.00 36 929.3
20260505221012 48 360 15.0 24.0 0.00 0.00 0.00 39 929.4
20260505220510 47 360 17.0 27.0 0.00 0.00 0.00 38 929.3
20260505220034 48 360 20.0 31.0 0.00 0.00 0.00 37 929.3
20260505215514 48 360 24.0 31.0 0.00 0.00 0.00 37 929.3
20260505215011 48 360 19.0 27.0 0.00 0.00 0.00 26 929.1
20260505214532 48 360 17.0 38.0 0.00 0.00 0.00 28 929.4
20260505214014 47 360 23.0 38.0 0.00 0.00 0.00 30 929.1
20260505213513 47 360 25.0 32.0 0.00 0.00 0.00 35 929.4
20260505213030 48 360 15.0 32.0 0.00 0.00 0.00 26 929.5
20260505212512 48 360 19.0 27.0 0.00 0.00 0.00 31 929.4
20260505212018 47 360 20.0 23.0 0.00 0.00 0.00 34 929.5
20260505211546 46 360 18.0 26.0 0.00 0.00 0.00 41 929.6
20260505211013 47 360 20.0 30.0 0.00 0.00 0.00 40 929.8
20260505210511 46 360 22.0 30.0 0.00 0.00 0.00 43 929.9
20260505210032 46 360 24.0 29.0 0.00 0.00 0.00 42 929.7
20260505205517 46 360 21.0 28.0 0.00 0.00 0.00 40 929.8
20260505205014 46 360 21.0 29.0 0.00 0.00 0.00 39 929.9
20260505204544 46 360 18.0 29.0 0.00 0.00 0.00 38 929.9
20260505204012 46 360 21.0 32.0 0.00 0.00 0.00 37 929.4
20260505203512 47 360 25.0 32.0 0.00 0.00 0.00 37 929.5
20260505203032 48 360 23.0 30.0 0.00 0.00 0.00 35 929.4
20260505202513 47 360 22.0 29.0 0.00 0.00 0.00 33 929.4
20260505202012 48 360 21.0 25.0 0.00 0.00 0.00 24 929.4
20260505201538 47 360 16.0 28.0 0.00 0.00 0.00 25 929.5
20260505201013 48 360 24.0 31.0 0.00 0.00 0.00 24 929.5
20260505200511 47 360 16.0 31.0 0.00 0.00 0.00 27 929.5
20260505200039 47 360 16.0 23.0 0.00 0.00 0.00 27 929.7
20260505195513 47 360 18.0 27.0 0.00 0.00 0.00 26 929.4
20260505195010 47 360 18.0 28.0 0.00 0.00 0.00 27 929.8
20260505194531 47 360 20.0 28.0 0.00 0.00 0.00 27 929.6
20260505194021 47 360 12.0 23.0 0.00 0.00 0.00 28 929.9
20260505193514 46 360 8.0 21.0 0.00 0.00 0.00 34 929.9
20260505193037 46 360 12.0 23.0 0.00 0.00 0.00 37 929.9
20260505192516 46 360 15.0 23.0 0.00 0.00 0.00 38 929.9
20260505192013 44 360 20.0 26.0 0.00 0.00 0.00 41 929.8
20260505191536 45 360 16.0 27.0 0.00 0.00 0.00 38 929.9
20260505191012 44 360 16.0 24.0 0.00 0.00 0.00 41 929.9
20260505190511 44 360 19.0 27.0 0.00 0.00 0.00 41 929.8
20260505190038 43 360 19.0 33.0 0.00 0.00 0.00 42 929.8
20260505185513 44 360 24.0 33.0 0.00 0.00 0.00 42 929.2
20260505185011 43 360 19.0 23.0 0.00 0.00 0.00 45 929.8
20260505184540 42 360 18.0 23.0 0.00 0.00 0.00 44 929.8
20260505184016 42 360 18.0 23.0 0.00 0.00 0.00 45 929.6
20260505183518 42 360 14.0 23.0 0.00 0.00 0.00 51 929.9
20260505183031 42 360 18.0 24.0 0.00 0.00 0.00 52 929.8
20260505182515 42 360 16.0 29.0 0.00 0.00 0.00 50 930.0
20260505182013 42 360 19.0 29.0 0.00 0.00 0.00 51 929.9
20260505181544 42 360 19.0 25.0 0.00 0.00 0.00 57 930.1
20260505181015 41 360 15.0 23.0 0.00 0.00 0.00 57 930.0
20260505180512 42 360 16.0 24.0 0.00 0.00 0.00 55 930.1
20260505180033 42 360 18.0 27.0 0.00 0.00 0.00 57 930.1
20260505175513 42 360 19.0 27.0 0.00 0.00 0.00 57 930.1
20260505175013 42 360 18.0 26.0 0.00 0.00 0.00 58 930.2
20260505174538 41 360 19.0 24.0 0.00 0.00 0.00 60 930.1
20260505174013 40 360 19.0 24.0 0.00 0.00 0.00 62 930.2
20260505173513 40 360 19.0 24.0 0.00 0.00 0.00 62 930.3
20260505173036 40 360 20.0 25.0 0.00 0.00 0.00 62 930.4
20260505172515 39 360 20.0 25.0 0.00 0.00 0.00 62 930.4
20260505172014 39 360 15.0 22.0 0.00 0.00 0.00 64 930.3
20260505171538 39 360 17.0 23.0 0.00 0.00 0.00 64 930.3
20260505171014 39 360 16.0 23.0 0.00 0.00 0.00 66 930.4
20260505170512 38 360 16.0 21.0 0.00 0.00 0.00 68 930.4
20260505170035 37 360 16.0 21.0 0.00 0.00 0.00 67 930.4
20260505165514 36 360 17.0 21.0 0.00 0.00 0.00 67 930.5
20260505165016 37 360 17.0 20.0 0.00 0.00 0.00 68 930.6
20260505164535 36 360 13.0 17.0 0.00 0.00 0.00 67 930.7
20260505164014 36 360 13.0 18.0 0.00 0.00 0.00 67 930.7
20260505163515 36 360 13.0 19.0 0.00 0.00 0.00 67 930.5
20260505163036 35 360 13.0 19.0 0.00 0.00 0.00 68 930.4
20260505162512 35 360 14.0 19.0 0.00 0.00 0.00 68 930.7
20260505162012 35 360 15.0 19.0 0.00 0.00 0.00 67 930.6
20260505161536 35 360 15.0 22.0 0.00 0.00 0.00 66 930.7
20260505161013 36 360 19.0 23.0 0.00 0.00 0.00 65 930.4
20260505160518 37 360 19.0 23.0 0.00 0.00 0.00 64 930.0
20260505153042 37 360 11.0 18.0 0.00 0.00 0.00 63 930.4
20260505152513 36 360 10.0 17.0 0.00 0.00 0.00 63 930.4
20260505152015 36 360 12.0 21.0 0.00 0.00 0.00 63 930.4
20260505151536 37 360 16.0 21.0 0.00 0.00 0.00 62 930.3
20260505151013 37 360 16.0 20.0 0.00 0.00 0.00 62 930.0
20260505150519 37 360 13.0 16.0 0.00 0.00 0.00 62 930.2
20260505140516 37 360 12.0 16.0 0.00 0.00 0.00 63 930.2
20260505125014 36 360 11.0 14.0 0.00 0.00 0.00 65 929.6
20260505124538 36 360 6.0 11.0 0.00 0.00 0.00 66 929.8
20260505124016 36 360 6.0 9.0 0.00 0.00 0.00 66 929.8
20260505123515 36 360 5.0 11.0 0.00 0.00 0.00 66 929.9
20260505123047 36 360 8.0 12.0 0.00 0.00 0.00 66 929.8
20260505122515 36 360 9.0 12.0 0.00 0.00 0.00 66 929.6
20260505121535 36 360 9.0 12.0 0.00 0.00 0.00 66 929.9
20260505121011 35 360 10.0 13.0 0.00 0.00 0.00 66 929.9
20260505120510 35 360 11.0 13.0 0.00 0.00 0.00 66 929.7
20260505120042 35 360 10.0 13.0 0.00 0.00 0.00 65 929.8
20260505115512 35 360 11.0 14.0 0.00 0.00 0.00 65 929.6
20260505115012 35 360 11.0 14.0 0.00 0.00 0.00 65 929.6
20260505114535 36 360 9.0 15.0 0.00 0.00 0.00 64 929.5
20260505114014 36 360 11.0 16.0 0.00 0.00 0.00 64 929.5
20260505113511 36 360 11.0 14.0 0.00 0.00 0.00 63 929.7
20260505113035 36 360 9.0 15.0 0.00 0.00 0.00 63 929.8
20260505112517 36 360 12.0 16.0 0.00 0.00 0.00 62 929.4
20260505112011 36 360 11.0 17.0 0.00 0.00 0.00 61 929.2
20260505111538 36 360 13.0 18.0 0.00 0.00 0.00 60 929.0
20260505111013 37 360 13.0 18.0 0.00 0.00 0.00 58 929.4
20260505110514 37 360 14.0 17.0 0.00 0.00 0.00 57 929.2
20260505102014 35 360 3.0 4.0 0.00 0.00 0.00 45 929.3
20260505101536 35 360 1.0 3.0 0.00 0.00 0.00 44 929.4
20260505101014 35 360 2.0 3.0 0.00 0.00 0.00 44 929.1
20260505100515 35 360 0.0 2.0 0.00 0.00 0.00 44 929.2
20260505100037 35 360 1.0 2.0 0.00 0.00 0.00 44 929.0
20260505095517 35 360 2.0 3.0 0.00 0.00 0.00 44 928.8
20260505095017 35 360 2.0 4.0 0.00 0.00 0.00 44 929.1
20260505094533 35 360 2.0 4.0 0.00 0.00 0.00 44 928.9
20260505094013 35 360 0.0 3.0 0.00 0.00 0.00 44 928.9